FW6259 Weather Reports


time (UTC)temp
C
wind
direction
speed
KPH
gust
KPH
rain 1hr
cm
rain 24hr
cm
rain mn
cm
humidity
%
barometer
mb
20260902003108 13 8 3.2 9.7 0.00 0.00 0.00 50 1008.7
20260902001557 13 347 1.6 12.9 0.00 0.00 0.00 49 1008.7
20260902000050 13 111 3.2 11.3 0.00 0.00 0.00 49 1008.7
20260901234503 14 39 3.2 12.9 0.00 0.00 0.00 48 1008.7
20260901233054 15 94 3.2 11.3 0.00 0.00 0.00 46 1008.6
20260901231608 14 335 6.4 14.5 0.00 0.00 0.00 49 1008.8
20260901230001 13 347 4.8 12.9 0.00 0.00 0.00 51 1009.0
20260901224559 13 2 3.2 16.1 0.00 0.00 0.00 52 1009.1
20260901223050 13 34 6.4 14.5 0.00 0.00 0.00 51 1008.9
20260901221608 14 51 6.4 12.9 0.00 0.00 0.00 46 1009.0
20260901220121 14 26 6.4 22.5 0.00 0.00 0.00 47 1009.1
20260901214554 13 145 6.4 14.5 0.00 0.00 0.00 50 1009.2
20260901213100 13 39 9.7 27.4 0.00 0.00 0.00 50 1009.4
20260901211501 13 49 4.8 19.3 0.00 0.00 0.00 52 1009.3
20260901210051 14 349 6.4 17.7 0.00 0.00 0.00 54 1009.4
20260901204513 13 28 9.7 25.7 0.00 0.00 0.00 56 1009.5
20260901203102 13 32 8.0 20.9 0.00 0.00 0.00 55 1009.7
20260901201557 12 29 9.7 22.5 0.00 0.00 0.00 54 1009.6
20260901200111 13 317 4.8 19.3 0.00 0.00 0.00 55 1009.7
20260901194501 12 108 9.7 20.9 0.00 0.00 0.00 55 1009.8
20260901193054 12 65 8.0 24.1 0.00 0.00 0.00 56 1009.8
20260901191623 12 308 4.8 24.1 0.00 0.00 0.00 61 1010.0
20260901190040 11 65 9.7 24.1 0.00 0.00 0.00 62 1010.0
20260901184557 11 89 4.8 14.5 0.00 0.00 0.00 65 1010.1
20260901183055 10 104 9.7 20.9 0.00 0.00 0.00 67 1010.2
20260901181551 10 83 9.7 20.9 0.00 0.00 0.00 64 1010.2
20260901180057 10 34 3.2 16.1 0.00 0.00 0.00 68 1010.3
20260901174556 10 41 4.8 20.9 0.00 0.00 0.00 68 1010.3
20260901173044 9 20 9.7 20.9 0.00 0.00 0.00 68 1010.1
20260901171604 8 30 4.8 22.5 0.00 0.00 0.00 71 1010.2
20260901170056 7 1 6.4 17.7 0.00 0.00 0.00 72 1010.3
20260901164502 7 36 8.0 17.7 0.00 0.00 0.00 73 1010.3
20260901163056 6 54 1.6 11.3 0.00 0.00 0.00 76 1010.3
20260901161553 6 23 4.8 14.5 0.00 0.00 0.00 77 1010.3
20260901160001 5 317 3.2 16.1 0.00 0.00 0.00 79 1010.0
20260901154557 4 338 6.4 19.3 0.00 0.00 0.00 81 1010.1
20260901153059 4 31 3.2 17.7 0.00 0.00 0.00 82 1010.0
20260901151600 3 327 4.8 14.5 0.00 0.00 0.00 85 1009.9
20260901150107 2 328 4.8 11.3 0.00 0.00 0.00 85 1009.7
20260901144550 2 77 4.8 12.9 0.00 0.00 0.00 86 1009.8
20260901143114 2 45 3.2 16.1 0.00 0.00 0.00 85 1009.8
20260901141606 2 31 4.8 12.9 0.00 0.00 0.00 86 1009.8
20260901140124 2 336 1.6 11.3 0.00 0.00 0.00 86 1009.8
20260901134557 2 44 3.2 9.7 0.00 0.00 0.00 85 1009.9
20260901133052 2 31 4.8 11.3 0.00 0.00 0.00 86 1009.8
20260901131508 2 342 4.8 11.3 0.00 0.00 0.00 85 1009.7
20260901130059 2 293 3.2 9.7 0.00 0.00 0.00 84 1009.7
20260901124556 3 326 6.4 12.9 0.00 0.03 0.00 84 1009.8
20260901123044 2 317 3.2 12.9 0.00 0.03 0.00 84 1009.6
20260901121607 2 333 3.2 11.3 0.00 0.03 0.00 83 1009.6
20260901120048 2 354 3.2 14.5 0.00 0.03 0.00 83 1009.5
20260901114507 2 330 3.2 14.5 0.00 0.08 0.00 83 1009.6
20260901113103 2 4 4.8 14.5 0.00 0.08 0.00 83 1009.3
20260901111654 2 323 6.4 14.5 0.00 0.08 0.00 83 1009.4
20260901110043 2 250 3.2 14.5 0.00 0.08 0.00 83 1009.2
20260901104604 3 346 3.2 8.0 0.00 0.15 0.00 82 1008.9
20260901103051 3 311 4.8 11.3 0.00 0.15 0.00 82 1008.5
20260901101601 3 299 3.2 9.7 0.00 0.15 0.00 80 1008.5
20260901100159 4 346 4.8 14.5 0.00 0.15 0.00 79 1008.3
20260901094552 4 360 4.8 16.1 0.00 0.20 0.00 78 1008.4
20260901093047 4 358 6.4 19.3 0.00 0.20 0.00 79 1008.3
20260901091601 4 26 4.8 16.1 0.00 0.20 0.00 79 1007.9
20260901090050 4 285 6.4 12.9 0.00 0.20 0.00 80 1007.8
20260901084551 4 359 4.8 12.9 0.00 0.23 0.00 79 1007.7
20260901083058 5 335 3.2 11.3 0.00 0.23 0.00 78 1007.6
20260901081559 5 39 3.2 14.5 0.00 0.23 0.00 78 1007.5
20260901080217 5 319 6.4 16.1 0.00 0.23 0.00 78 1007.2
20260901074500 5 29 4.8 24.1 0.00 0.30 0.23 77 1007.2
20260901073047 5 326 3.2 12.9 0.00 0.30 0.23 78 1007.2
20260901071504 5 341 4.8 16.1 0.00 0.30 0.23 78 1007.1
20260901064550 5 321 4.8 14.5 0.00 0.36 0.23 77 1006.9
20260901063103 5 316 4.8 12.9 0.00 0.36 0.23 76 1006.7
20260901061602 5 53 4.8 11.3 0.00 0.36 0.23 76 1006.6
20260901060046 6 345 4.8 16.1 0.00 0.36 0.23 76 1006.3
20260901054607 6 31 4.8 20.9 0.00 0.36 0.23 76 1006.1
20260901053055 6 325 6.4 19.3 0.00 0.36 0.23 76 1006.1
20260901051549 7 13 6.4 16.1 0.00 0.36 0.23 76 1006.0
20260901050002 7 340 4.8 14.5 0.00 0.36 0.23 76 1006.0
20260901044612 7 23 3.2 11.3 0.00 0.36 0.23 75 1005.8
20260901043047 7 10 3.2 9.7 0.00 0.36 0.23 74 1005.6
20260901041502 7 60 3.2 12.9 0.00 0.36 0.23 73 1005.3
20260901040100 8 38 4.8 14.5 0.00 0.36 0.23 73 1005.1
20260901034548 8 323 3.2 19.3 0.00 0.36 0.23 72 1005.0
20260901033059 8 12 4.8 22.5 0.00 0.36 0.23 71 1004.7
20260901031558 8 32 9.7 19.3 0.00 0.36 0.23 69 1004.5
20260901030049 9 335 4.8 17.7 0.00 0.36 0.23 68 1004.1
20260901024502 9 25 8.0 22.5 0.00 0.36 0.23 67 1003.7
20260901023055 9 315 8.0 20.9 0.00 0.36 0.23 67 1003.4
20260901021605 10 64 9.7 24.1 0.00 0.36 0.23 66 1003.2
20260901020100 10 41 12.9 22.5 0.00 0.36 0.23 64 1002.8
20260901014557 10 41 8.0 24.1 0.00 0.36 0.23 65 1002.5
20260901013051 10 63 8.0 24.1 0.00 0.36 0.23 64 1002.1
20260901011501 10 49 8.0 27.4 0.00 0.36 0.23 65 1001.8
20260901010158 10 15 14.5 35.4 0.00 0.36 0.23 64 1001.5
20260901004549 10 26 6.4 24.1 0.00 0.36 0.23 66 1001.4